Weather History for Franklin, NC

Change the Weather History Date:

Tuesday, October 30, 2012

  Actual Average (KTOC) Record (KTOC)
Temperature  
Mean Temperature 37 °F -  
Max Temperature 39 °F 68 °F 67 °F (2014)
Min Temperature 35 °F 46 °F 41 °F (2014)
Degree Days  
Heating Degree Days 28    
Moisture  
Dew Point 29 °F    
Average Humidity 73    
Maximum Humidity 87    
Minimum Humidity 56    
Precipitation  
Precipitation 0.02 in - - ()
Sea Level Pressure  
Sea Level Pressure 29.64 in    
Wind  
Wind Speed 6 mph (NW)    
Max Wind Speed 16 mph    
Max Gust Speed 24 mph    
Visibility 10 miles    
Events Rain    
Averages and records for this station are not official NWS values.
T = Trace of Precipitation, MM = Missing Value Source: NWS Daily Summary

Daily Weather History Graph

Daily Weather History Graph

Search for Another Location

Airport:

Trip Planner

Search our weather history database for the weather conditions in past years. The results will help you decide how hot, cold, wet, or windy it might be!

Date:

Astronomy

Oct. 30, 2012 Rise Set
Actual Time 7:53 AM EDT 6:40 PM EDT
Civil Twilight 7:27 AM EDT 7:06 PM EDT
Nautical Twilight 6:57 AM EDT 7:36 PM EDT
Astronomical Twilight 6:27 AM EDT 8:06 PM EDT
Moon 7:12 PM EDT (10/30) 8:36 AM EDT (10/30)
Length of Visible Light 11h 39m
Length of Day
10h 46m
Full, 99% of the Moon is Illuminated
Oct 30
Full
Nov 6
Last Quarter
Nov 13
New
Nov 20
First Quarter
Nov 28
Full

Hourly Weather History & Observations

Time (EDT) Temp. Windchill Dew Point Humidity Pressure Visibility Wind Dir Wind Speed Gust Speed Precip Events Conditions
12:15 AM 35.6 °F 31.7 °F 28.4 °F 75% 29.69 in 10.0 mi NNW 4.6 mph - N/A   Scattered Clouds
12:35 AM 35.6 °F 32.8 °F 28.4 °F 75% 29.67 in 10.0 mi WNW 3.5 mph - N/A   Scattered Clouds
12:55 AM 35.6 °F - 26.6 °F 70% 29.67 in 10.0 mi Calm Calm - N/A   Clear
1:15 AM 35.6 °F - 26.6 °F 70% 29.66 in 10.0 mi Calm Calm - N/A   Mostly Cloudy
1:35 AM 35.6 °F 31.7 °F 26.6 °F 70% 29.65 in 10.0 mi WNW 4.6 mph - N/A   Scattered Clouds
1:55 AM 35.6 °F 32.8 °F 26.6 °F 70% 29.64 in 10.0 mi WNW 3.5 mph - N/A   Scattered Clouds
2:15 AM 35.6 °F 31.7 °F 24.8 °F 65% 29.62 in 10.0 mi NW 4.6 mph - N/A   Scattered Clouds
2:35 AM 37.4 °F 30.3 °F 23.0 °F 56% 29.61 in 10.0 mi WNW 10.4 mph 16.1 mph N/A   Clear
2:55 AM 37.4 °F 30.8 °F 23.0 °F 56% 29.61 in 10.0 mi WNW 9.2 mph 18.4 mph N/A   Clear
3:55 AM 37.4 °F 32.1 °F 24.8 °F 60% 29.59 in 10.0 mi WNW 6.9 mph - N/A   Mostly Cloudy
4:15 AM 37.4 °F 32.8 °F 26.6 °F 65% 29.59 in 10.0 mi NW 5.8 mph - N/A   Overcast
4:55 AM 35.6 °F 30.7 °F 28.4 °F 75% 29.58 in 10.0 mi WNW 5.8 mph 16.1 mph N/A Rain Light Rain
5:15 AM 35.6 °F 28.6 °F 30.2 °F 81% 29.57 in 10.0 mi NW 9.2 mph 17.3 mph N/A Rain Light Rain
5:35 AM 35.6 °F 30.7 °F 30.2 °F 81% 29.57 in 10.0 mi WNW 5.8 mph 16.1 mph N/A Rain Light Rain
5:55 AM 35.6 °F 29.9 °F 30.2 °F 81% 29.57 in 10.0 mi WNW 6.9 mph 19.6 mph N/A Rain Light Rain
6:15 AM 35.6 °F 27.5 °F 30.2 °F 81% 29.57 in 10.0 mi WNW 11.5 mph 16.1 mph N/A   Light Drizzle
6:35 AM 35.6 °F 27.5 °F 30.2 °F 81% 29.57 in 10.0 mi WNW 11.5 mph 20.7 mph N/A   Scattered Clouds
6:55 AM 35.6 °F 28.6 °F 30.2 °F 81% 29.57 in 10.0 mi NW 9.2 mph - N/A   Scattered Clouds
7:15 AM 35.6 °F 29.9 °F 30.2 °F 81% 29.56 in 10.0 mi WNW 6.9 mph - N/A   Scattered Clouds
7:35 AM 35.6 °F 31.7 °F 28.4 °F 75% 29.57 in 10.0 mi WNW 4.6 mph - N/A   Scattered Clouds
7:55 AM 35.6 °F 29.2 °F 28.4 °F 75% 29.57 in 10.0 mi NW 8.1 mph - N/A   Clear
8:15 AM 37.4 °F 32.8 °F 26.6 °F 65% 29.58 in 10.0 mi NW 5.8 mph 17.3 mph N/A   Scattered Clouds
8:35 AM 37.4 °F 30.8 °F 26.6 °F 65% 29.58 in 10.0 mi WNW 9.2 mph 23.0 mph N/A   Clear
8:55 AM 37.4 °F 30.3 °F 26.6 °F 65% 29.59 in 10.0 mi WNW 10.4 mph 16.1 mph N/A   Clear
9:15 AM 37.4 °F 28.2 °F 26.6 °F 65% 29.59 in 10.0 mi WNW 16.1 mph 24.2 mph N/A   Scattered Clouds
9:35 AM 37.4 °F 30.3 °F 26.6 °F 65% 29.60 in 10.0 mi WNW 10.4 mph 21.9 mph N/A   Mostly Cloudy
9:55 AM 37.4 °F 32.1 °F 26.6 °F 65% 29.60 in 10.0 mi WNW 6.9 mph - N/A   Overcast
10:15 AM 37.4 °F 32.1 °F 28.4 °F 70% 29.60 in 10.0 mi WNW 6.9 mph 20.7 mph N/A   Overcast
10:35 AM 37.4 °F 30.8 °F 28.4 °F 70% 29.61 in 10.0 mi WNW 9.2 mph 16.1 mph N/A   Overcast
10:55 AM 37.4 °F 29.3 °F 28.4 °F 70% 29.61 in 10.0 mi WNW 12.7 mph 16.1 mph N/A   Mostly Cloudy
11:15 AM 37.4 °F 31.4 °F 28.4 °F 70% 29.61 in 10.0 mi WNW 8.1 mph - N/A   Scattered Clouds
11:35 AM 37.4 °F 32.1 °F 28.4 °F 70% 29.61 in 10.0 mi WNW 6.9 mph 16.1 mph N/A   Mostly Cloudy
11:55 AM 37.4 °F 33.8 °F 28.4 °F 70% 29.62 in 10.0 mi WNW 4.6 mph - N/A   Overcast
12:15 PM 37.4 °F 32.8 °F 28.4 °F 70% 29.61 in 10.0 mi WNW 5.8 mph - N/A   Overcast
12:35 PM 39.2 °F 35.9 °F 28.4 °F 65% 29.61 in 10.0 mi WNW 4.6 mph - N/A   Overcast
12:55 PM 39.2 °F 33.0 °F 28.4 °F 65% 29.61 in 10.0 mi WNW 9.2 mph 18.4 mph N/A   Overcast
1:15 PM 39.2 °F 32.5 °F 28.4 °F 65% 29.61 in 10.0 mi WNW 10.4 mph 17.3 mph N/A   Overcast
1:35 PM 39.2 °F 32.0 °F 28.4 °F 65% 29.61 in 10.0 mi West 11.5 mph 23.0 mph N/A   Overcast
1:55 PM 39.2 °F 33.6 °F 30.2 °F 70% 29.61 in 10.0 mi WNW 8.1 mph 16.1 mph N/A   Overcast
2:15 PM 39.2 °F 35.9 °F 30.2 °F 70% 29.61 in 10.0 mi WNW 4.6 mph - N/A   Light Drizzle
2:35 PM 39.2 °F 34.2 °F 30.2 °F 70% 29.62 in 10.0 mi WNW 6.9 mph - N/A   Light Drizzle
2:55 PM 39.2 °F 33.6 °F 30.2 °F 70% 29.62 in 10.0 mi WNW 8.1 mph 21.9 mph N/A   Light Drizzle
3:15 PM 39.2 °F 35.9 °F 32.0 °F 75% 29.62 in 10.0 mi NE 4.6 mph - N/A Rain Light Rain
3:35 PM 39.2 °F 32.5 °F 32.0 °F 75% 29.63 in 10.0 mi WNW 10.4 mph - N/A Rain Light Rain
3:55 PM 37.4 °F 30.8 °F 32.0 °F 81% 29.63 in 10.0 mi WNW 9.2 mph - N/A Rain Light Rain
4:15 PM 37.4 °F 32.8 °F 32.0 °F 81% 29.64 in 10.0 mi NW 5.8 mph - N/A Rain Light Rain
4:35 PM 37.4 °F 31.4 °F 32.0 °F 81% 29.64 in 10.0 mi WNW 8.1 mph - N/A Rain Light Rain
4:55 PM 37.4 °F 32.8 °F 32.0 °F 81% 29.65 in 10.0 mi WNW 5.8 mph - N/A Rain Light Rain
5:15 PM 37.4 °F 32.8 °F 32.0 °F 81% 29.65 in 10.0 mi WNW 5.8 mph - N/A Rain Light Rain
5:35 PM 37.4 °F 31.4 °F 32.0 °F 81% 29.66 in 10.0 mi WNW 8.1 mph - N/A   Drizzle
5:55 PM 37.4 °F 32.8 °F 32.0 °F 81% 29.66 in 10.0 mi WNW 5.8 mph - 0.01 in Rain Light Rain
6:15 PM 35.6 °F 29.9 °F 32.0 °F 87% 29.67 in 10.0 mi WNW 6.9 mph - N/A Rain Rain
6:35 PM 35.6 °F 31.7 °F 32.0 °F 87% 29.68 in 10.0 mi WNW 4.6 mph - N/A   Drizzle
6:55 PM 35.6 °F 29.9 °F 32.0 °F 87% 29.68 in 7.0 mi WNW 6.9 mph - N/A Rain Light Rain
7:15 PM 37.4 °F 31.4 °F 32.0 °F 81% 29.69 in 7.0 mi NW 8.1 mph - 0.01 in   Drizzle
7:35 PM 37.4 °F 32.1 °F 32.0 °F 81% 29.70 in 7.0 mi NW 6.9 mph - 0.01 in Rain Rain
7:55 PM 37.4 °F 32.8 °F 32.0 °F 81% 29.71 in 10.0 mi WNW 5.8 mph - 0.01 in   Drizzle
8:15 PM 37.4 °F 33.8 °F 32.0 °F 81% 29.71 in 10.0 mi WNW 4.6 mph - N/A   Drizzle
8:35 PM 37.4 °F 32.8 °F 32.0 °F 81% 29.73 in 10.0 mi NW 5.8 mph - N/A   Drizzle
8:55 PM 37.4 °F 34.9 °F 32.0 °F 81% 29.73 in 10.0 mi NW 3.5 mph - N/A   Light Drizzle
9:15 PM 37.4 °F 33.8 °F 30.2 °F 75% 29.74 in 10.0 mi NNE 4.6 mph - N/A   Overcast
9:35 PM 37.4 °F 31.4 °F 30.2 °F 75% 29.75 in 10.0 mi WNW 8.1 mph - N/A   Overcast
9:55 PM 37.4 °F 32.8 °F 28.4 °F 70% 29.75 in 10.0 mi WNW 5.8 mph - N/A   Overcast
10:15 PM 37.4 °F - 28.4 °F 70% 29.75 in 10.0 mi Calm Calm - N/A   Overcast
10:35 PM 37.4 °F 32.8 °F 28.4 °F 70% 29.75 in 10.0 mi ENE 5.8 mph - N/A   Overcast
10:55 PM 37.4 °F - 28.4 °F 70% 29.75 in 10.0 mi Calm Calm - N/A   Overcast
11:15 PM 39.2 °F 33.0 °F 26.6 °F 61% 29.75 in 10.0 mi NW 9.2 mph 20.7 mph N/A   Overcast
11:35 PM 39.2 °F 34.2 °F 26.6 °F 61% 29.75 in 10.0 mi WNW 6.9 mph 17.3 mph N/A   Overcast
11:55 PM 39.2 °F - 26.6 °F 61% 29.75 in 10.0 mi Calm Calm - N/A   Overcast